WA7BMK Weather Reports


Display with metric or nautical units.
time (UTC)temp
F
wind
direction
speed
MPH
gust
MPH
rain 1hr
in
rain 24hr
in
rain mn
in
humidity
%
barometer
mb
20260906154545 57 0 0.0 2.0 0.00 0.00 0.00 83 1016.8
20260906153047 55 148 1.0 3.0 0.00 0.00 0.00 85 1016.7
20260906151542 54 115 1.0 4.0 0.00 0.00 0.00 90 1016.5
20260906150053 52 0 0.0 2.0 0.00 0.00 0.00 93 1016.5
20260906144555 50 0 0.0 0.0 0.00 0.00 0.00 93 1016.3
20260906143043 50 0 0.0 0.0 0.00 0.00 0.00 93 1016.4
20260906141547 49 0 0.0 0.0 0.00 0.00 0.00 93 1016.3
20260906140042 49 0 0.0 0.0 0.00 0.00 0.00 92 1016.3
20260906134541 48 0 0.0 0.0 0.00 0.00 0.00 92 1016.3
20260906133044 49 0 0.0 0.0 0.00 0.00 0.00 92 1016.2
20260906131542 48 0 0.0 0.0 0.00 0.00 0.00 92 1016.1
20260906130047 48 0 0.0 0.0 0.00 0.00 0.00 92 1016.2
20260906124539 48 0 0.0 0.0 0.00 0.00 0.00 91 1016.2
20260906123039 49 0 0.0 0.0 0.00 0.00 0.00 91 1016.3
20260906121539 49 0 0.0 0.0 0.00 0.00 0.00 91 1016.4
20260906120049 49 0 0.0 0.0 0.00 0.00 0.00 91 1016.3
20260906114541 49 0 0.0 0.0 0.00 0.00 0.00 91 1016.3
20260906113040 49 0 0.0 0.0 0.00 0.00 0.00 90 1016.4
20260906111548 49 0 0.0 0.0 0.00 0.00 0.00 90 1016.4
20260906110045 50 0 0.0 0.0 0.00 0.00 0.00 90 1016.6
20260906104543 50 0 0.0 0.0 0.00 0.00 0.00 90 1016.6
20260906103039 50 0 0.0 0.0 0.00 0.00 0.00 90 1016.5
20260906101545 50 0 0.0 0.0 0.00 0.00 0.00 90 1016.4
20260906100045 50 0 0.0 0.0 0.00 0.00 0.00 90 1016.5
20260906094605 50 0 0.0 0.0 0.00 0.00 0.00 90 1016.5
20260906093047 50 0 0.0 0.0 0.00 0.00 0.00 90 1016.5
20260906091546 50 0 0.0 0.0 0.00 0.00 0.00 90 1016.5
20260906090045 50 0 0.0 0.0 0.00 0.00 0.00 89 1016.5
20260906084542 51 0 0.0 0.0 0.00 0.00 0.00 89 1016.7
20260906083040 50 0 0.0 0.0 0.00 0.00 0.00 88 1016.7
20260906081548 51 0 0.0 0.0 0.00 0.00 0.00 88 1016.6
20260906080050 51 0 0.0 0.0 0.00 0.00 0.00 88 1016.7
20260906074601 52 0 0.0 2.0 0.00 0.00 0.00 87 1016.6
20260906073044 52 0 0.0 0.0 0.00 0.00 0.00 87 1016.7
20260906071540 52 0 0.0 0.0 0.00 0.00 0.00 86 1016.9
20260906070044 52 0 0.0 0.0 0.00 0.00 0.00 86 1016.8
20260906064542 52 0 0.0 0.0 0.00 0.00 0.00 85 1016.9
20260906063040 53 0 0.0 0.0 0.00 0.00 0.00 85 1016.8
20260906061541 53 0 0.0 0.0 0.00 0.00 0.00 85 1016.8
20260906060040 53 0 0.0 0.0 0.00 0.00 0.00 84 1016.9
20260906054543 54 0 0.0 0.0 0.00 0.00 0.00 83 1016.9
20260906053038 54 0 0.0 1.0 0.00 0.00 0.00 82 1017.1
20260906051538 55 0 0.0 2.0 0.00 0.00 0.00 82 1017.2
20260906050042 55 0 0.0 0.0 0.00 0.00 0.00 81 1017.3
20260906044543 55 0 0.0 0.0 0.00 0.00 0.00 80 1017.3
20260906043044 56 0 0.0 0.0 0.00 0.00 0.00 79 1017.4
20260906041541 57 0 0.0 0.0 0.00 0.00 0.00 78 1017.4
20260906040050 57 0 0.0 0.0 0.00 0.00 0.00 76 1017.5
20260906034548 58 0 0.0 0.0 0.00 0.00 0.00 75 1017.4
20260906033039 60 0 0.0 0.0 0.00 0.00 0.00 73 1017.4
20260906031549 61 0 0.0 0.0 0.00 0.00 0.00 70 1017.1
20260906030043 62 0 0.0 0.0 0.00 0.00 0.00 68 1017.0
20260906024537 63 0 0.0 0.0 0.00 0.00 0.00 68 1017.1
20260906023049 64 0 0.0 0.0 0.00 0.00 0.00 63 1017.0
20260906021552 66 0 0.0 0.0 0.00 0.00 0.00 62 1016.9
20260906020053 68 0 0.0 0.0 0.00 0.00 0.00 59 1016.8
20260906014550 68 0 0.0 2.0 0.00 0.00 0.00 55 1016.8
20260906013041 69 107 1.0 3.0 0.00 0.00 0.00 52 1016.9
20260906011543 69 0 0.0 3.0 0.00 0.00 0.00 53 1016.8
20260906010042 69 124 2.0 4.0 0.00 0.00 0.00 54 1016.8
20260906004536 69 0 1.0 4.0 0.00 0.00 0.00 52 1016.8
20260906003042 69 86 2.0 6.0 0.00 0.00 0.00 51 1016.7
20260906001538 70 108 1.0 4.0 0.00 0.00 0.00 51 1016.7
20260906000040 70 113 2.0 7.0 0.00 0.00 0.00 52 1016.7
20260905234540 70 102 3.0 7.0 0.00 0.00 0.00 50 1016.8
20260905233042 70 70 3.0 8.0 0.00 0.00 0.00 50 1016.8
20260905231542 70 123 5.0 9.0 0.00 0.00 0.00 51 1016.8
20260905230040 70 121 0.0 7.0 0.00 0.00 0.00 56 1016.7
20260905224539 69 117 2.0 11.0 0.00 0.00 0.00 55 1016.9
20260905223045 68 0 0.0 9.0 0.00 0.00 0.00 56 1017.0
20260905221547 69 257 0.0 9.0 0.00 0.00 0.00 57 1017.4
20260905220040 70 107 1.0 7.0 0.00 0.00 0.00 55 1017.4
20260905214538 69 316 0.0 7.0 0.00 0.00 0.00 58 1017.5
20260905213042 68 153 2.0 5.0 0.00 0.00 0.00 62 1017.5
20260905211545 68 87 1.0 4.0 0.00 0.00 0.00 58 1017.7
20260905210056 66 0 0.0 4.0 0.00 0.00 0.00 64 1017.7
20260905204538 64 151 2.0 6.0 0.00 0.00 0.00 66 1017.9
20260905203043 63 360 1.0 6.0 0.00 0.00 0.00 70 1018.2
20260905201540 62 112 2.0 6.0 0.00 0.00 0.00 73 1018.2
20260905200057 62 0 2.0 5.0 0.00 0.00 0.00 72 1018.1
20260905194538 62 144 1.0 4.0 0.00 0.00 0.00 73 1018.2
20260905193039 61 0 1.0 3.0 0.00 0.00 0.00 75 1018.4
20260905191542 61 0 0.0 0.0 0.00 0.00 0.00 76 1018.4
20260905190038 60 360 0.0 4.0 0.00 0.00 0.00 76 1018.5
20260905184545 60 0 0.0 2.0 0.00 0.00 0.00 76 1018.7
20260905183040 60 112 1.0 3.0 0.00 0.00 0.00 77 1018.7
20260905181539 60 0 1.0 6.0 0.00 0.00 0.00 78 1018.8
20260905180044 60 104 2.0 7.0 0.00 0.00 0.00 78 1018.8
20260905174541 59 178 2.0 5.0 0.00 0.00 0.00 77 1018.7
20260905173039 59 0 0.0 2.0 0.00 0.00 0.00 79 1018.7
20260905171554 60 0 1.0 4.0 0.00 0.00 0.00 78 1018.5
20260905170039 59 0 0.0 0.0 0.00 0.00 0.00 81 1018.5
20260905164541 57 0 0.0 0.0 0.00 0.00 0.00 85 1018.6
20260905163041 55 0 0.0 0.0 0.00 0.00 0.00 87 1018.5
20260905161544 54 0 0.0 1.0 0.00 0.00 0.00 90 1018.4
20260905160048 52 0 1.0 3.0 0.00 0.00 0.00 92 1018.3